SCP
0 0 0 0 0 0 0 0 0 0 0 0 0 0 0 0 0 0 0 0 0 0 0 0 0 0 0 0 0 0 0 0 0 0 0 0 0 0 0 0 0 0 0
0 0 0 0 0 0 0 0 0 0 0 0 0 0 0 0 0 0 0 0 0 0 0 0 0 0 0 0 0 0 0 0 0 0 0 0 0 0 0 0 0 0 0
0 0 0 0 0 0 0 0 0 0 0 0 0 0 0 0 0 0 0 0 0 0 0 0 0 0 0 0 0 0 0 0 0 0 0 0 0 0 0 0 0 0 0
0 0 0 0 0 0 0 0 0 0 0 0 0 0 0 0 0 0 0 0 0 0 0 0 0 0 0 0 0 0 0 0 0 0 0 0 0 0 0 0 0 0 0
0 0 0 0 0 0 0 0 0 0 0 0 0 0 0 0 0 0 0 0 0 0 0 0 0 0 0 0 0 0 0 0 0 0 0 0 0 0 0 0 0 0 0
0 0 0 0 0 0 0 0 0 0 0 0 0 0 0 0 0 0 0 0 0 0 0 0 0 0 0 0 0 0 0 0 0 0 0 0 0 0 0 0 0 0 0
0 0 0 0 0 0 0 0 0 0 0 0 0 0 0 0 0 0 0 0 0 0 0 0 0 0 0 0 0 0 0 0 0 0 0 0 0 0 0 0 0 0 0
0 0 0 0 0 0 0 0 0 0 0 0 0 0 0 0 0 0 0 0 0 0 0 0 0 0 0 0 0 0 0 0 0 0 0 0 0 0 0 0 0 0 0
0 0 0 0 0 0 0 0 0 0 0 0 0 0 0 0 0 0 0 0 0 0 0 0 0 0 0 0 0 0 0 0 0 0 0 0 0 0 0 0 0 0 0
0 0 0 0 0 0 0 0 0 0 0 0 0 0 0 0 0 0 0 0 0 0 0 0 0 0 0 0 0 0 0 0 0 0 0 0 0 0 0 0 0 0 0
0 0 0 0 0 0 0 0 0 0 0 0 0 0 0 0 0 0 0 0 0 0 0 0 0 0 0 0 0 0 0 0 0 0 0 0 0 0 0 0 0 0 0
0 0 0 0 0 0 0 0 0 0 0 0 0 0 0 0 0 0 0 0 0 0 0 0 0 0 0 0 0 0 0 0 0 0 0 0 0 0 0 0 0 0 0
0 0 0 0 0 0 0 0 0 0 0 0 0 0 0 0 0 0 0 0 0 0 0 0 0 0 0 0 0 0 0 0 0 0 0 0 0 0 0 0 0 0 0
0 0 0 0 0 0 0 0 0 0 0 0 0 0 0 0 0 0 0 0 0 0 0 0 0 0 0 0 0 0 0 0 0 0 0 0 0 0 0 0 0 0 0
0 0 0 0 0 0 0 0 0 0 0 0 0 0 0 0 0 0 0 0 0 0 0 0 0 0 0 0 0 0 0 0 0 0 0 0 0 0 0 0 0 0 0
0 0 0 0 0 0 0 0 0 0 0 0 0 0 0 0 0 0 0 0 0 0 0 0 0 0 0 0 0 0 0 0 0 0 0 0 0 0 0 0 0 0 0
0 0 0 0 0 0 0 0 0 0 0 0 0 0 0 0 0 0 0 0 0 0 0 0 0 0 0 0 0 0 0 0 0 0 0 0 0 0 0 0 0 0 0
0 0 0 0 0 0 0 0 0 0 0 0 0 0 0 0 0 0 0 0 0 0 0 0 0 0 0 0 0 0 0 0 0 0 0 0 0 0 0 0 0 0 0
0 0 0 0 0 0 0 0 0 0 0 0 0 0 0 0 0 0 0 0 0 0 0 0 0 0 0 0 0 0 0 0 0 0 0 0 0 0 0 0 0 0 0
0 0 0 0 0 0 0 0 0 0 0 0 0 0 0 0 0 0 0 0 0 0 0 0 0 0 0 0 0 0 0 0 0 0 0 0 0 0 0 0 0 0 0
0 0 0 0 0 0 0 0 0 0 0 0 0 0 0 0 0 0 0 0 0 0 0 0 0 0 0 0 0 0 0 0 0 0 0 0 0 0 0 0 0 0 0
0 0 0 0 0 0 0 0 0 0 0 0 0 0 0 0 0 0 0 0 0 0 0 0 0 0 0 0 0 0 0 0 0 0 0 0 0 0 0 0 0 0 0
0 0 0 0 0 0 0 0 0 0 0 0 0 0 0 0 0 0 0 0 0 0 0 0 0 0 0 0 0 0 0 0 0 0 0 0 0 0 0 0 0 0 0
0 0 0 0 0 0 0 0 0 0 0 0 0 0 0 0 0 0 0 0 0 0 0 0 0 0 0 0 0 0 0 0 0 0 0 0 0 0 0 0 0 0 0
0 0 0 0 0 0 0 0 0 0 0 0 0 0 0 0 0 0 0 0 0 0 0 0 0 0 0 0 0 0 0 0 0 0 0 0 0 0 0 0 0 0 0
0 0 0 0 0 0 0 0 0 0 0 0 0 0 0 0 0 0 0 0 0 0 0 0 0 0 0 0 0 0 0 0 0 0 0 0 0 0 0 0 0 0 0
Wind_Speed
2 1 1 1 1 1 1 2 3 4 4 4 4 5 4 4 4 3 3 8 9 10 10 10 9 10 9 9 9 9 9 8 8 8 7 7 7 6 5 5 5 5 5
2 2 2 2 1 1 2 2 3 3 3 3 4 4 4 4 4 4 3 5 9 9 9 9 9 9 9 9 10 9 9 9 8 8 7 7 6 6 6 5 5 5 5
3 3 2 2 1 2 3 3 4 3 4 4 4 3 3 3 3 4 4 4 4 8 9 9 9 9 10 10 10 10 9 9 9 8 8 7 7 6 6 5 5 5 5
4 3 3 2 2 2 3 3 3 3 3 3 3 3 3 3 3 3 4 4 4 4 6 10 9 9 10 10 9 9 9 9 9 9 8 8 7 7 6 5 5 5 5
4 4 3 2 2 3 3 3 3 3 3 3 3 3 3 3 3 4 3 4 4 4 3 6 9 9 9 9 9 9 9 8 8 9 9 8 7 6 5 5 5 5 5
4 4 3 3 3 3 3 3 3 3 2 2 3 4 3 3 3 3 3 3 3 4 4 4 4 5 9 9 8 8 8 7 7 8 8 8 7 7 6 5 5 5 5
4 4 3 3 3 3 3 3 3 3 2 2 3 3 4 4 4 3 2 3 3 3 3 3 3 3 3 6 7 7 7 7 7 7 7 8 8 7 7 5 5 5 5
4 4 4 3 3 3 3 3 3 2 1 1 2 2 2 4 4 4 3 2 2 2 3 3 3 3 3 2 4 6 6 6 6 7 7 7 7 6 6 6 5 5 5
3 3 4 3 3 3 3 3 3 4 2 0 1 3 3 1 1 3 3 2 2 2 1 2 2 2 2 2 2 4 6 5 6 6 6 6 6 6 5 5 5 5 5
2 3 3 3 3 2 3 3 3 3 3 1 0 1 2 3 2 0 2 2 2 2 1 1 1 1 2 1 2 4 4 4 4 4 5 5 5 5 4 5 5 5 4
2 3 3 3 3 2 3 2 2 3 2 3 2 1 1 1 2 3 1 2 2 2 1 1 0 1 1 1 1 2 3 3 4 3 4 5 4 4 4 4 4 4 4
1 2 3 3 3 3 3 3 3 3 2 2 2 2 2 2 2 2 2 1 1 2 1 1 1 1 1 1 1 3 3 3 3 3 4 4 4 4 4 3 4 4 4
1 2 2 2 2 2 3 3 3 2 2 3 2 2 2 2 2 2 2 1 1 2 1 1 1 1 1 1 1 2 2 3 2 2 3 3 3 3 3 3 3 4 4
3 3 3 2 2 3 3 3 2 2 2 2 2 2 1 1 2 2 3 3 1 1 1 2 1 1 1 1 1 1 1 2 2 1 1 2 3 3 3 3 3 3 3
3 3 3 3 2 3 3 3 2 2 2 2 2 2 1 1 1 1 2 3 4 1 2 3 2 2 1 1 1 1 1 1 1 1 0 0 1 2 2 3 3 4 4
3 3 3 3 3 3 3 3 2 2 2 1 1 2 1 1 1 1 2 2 2 3 2 3 2 2 1 1 1 1 1 2 1 1 1 1 1 1 1 2 3 3 4
3 3 3 3 3 3 3 3 3 2 2 2 1 2 2 2 2 1 1 1 2 2 2 2 1 1 1 1 1 1 1 1 2 3 2 2 2 2 1 2 2 3 3
2 2 2 2 2 2 3 4 3 3 3 3 2 2 2 1 2 1 2 2 2 2 3 2 2 1 1 2 1 1 1 1 2 3 3 2 2 2 1 1 2 3 3
1 1 2 2 2 2 2 2 3 3 3 3 3 3 3 2 2 1 2 2 1 1 1 2 2 1 0 0 0 1 1 2 2 2 3 2 2 2 1 2 3 3 3
1 0 1 2 2 2 2 2 2 2 2 2 3 3 3 4 3 3 2 2 2 1 1 1 1 0 0 0 1 0 1 2 2 2 2 2 2 2 2 3 3 2 2
1 0 0 1 1 2 2 2 2 2 2 1 1 2 3 3 4 3 2 3 3 2 2 2 1 0 0 0 1 1 1 2 2 1 1 2 1 1 2 3 3 3 2
1 1 1 1 1 1 1 2 2 3 3 3 2 1 1 2 3 3 3 4 5 4 4 3 2 2 3 2 1 1 1 0 2 1 0 2 1 1 2 2 3 3 2
1 1 1 1 2 2 2 1 2 2 2 3 3 2 1 1 1 2 1 2 3 4 5 5 4 4 4 4 3 2 2 2 3 2 1 1 1 2 2 2 4 3 3
2 2 2 2 3 2 2 1 2 2 2 2 2 3 2 2 1 2 2 1 1 2 4 3 4 4 4 3 4 3 3 2 1 1 1 1 1 2 3 2 4 4 4
2 2 2 2 3 3 3 3 3 2 1 1 2 2 2 2 2 3 3 2 1 2 2 2 2 3 3 3 3 2 2 1 1 2 0 1 1 1 2 2 3 4 4
3 2 2 2 3 3 2 3 3 2 1 1 1 1 2 2 3 3 4 3 3 3 1 1 0 1 1 2 3 3 4 2 1 2 1 1 1 0 2 2 2 2 2
Wind_Direction
113 101 71 56 43 47 75 78 77 78 74 71 74 76 63 55 51 46 41 60 65 67 68 67 68 74 80 85 84 78 73 70 65 63 62 61 58 59 65 70 77 77 77
120 108 90 72 51 57 81 89 91 93 82 78 75 74 71 60 52 49 43 48 56 60 63 67 71 71 76 87 85 78 71 65 62 60 58 57 55 56 62 70 74 77 76
128 117 101 82 64 69 78 80 74 80 82 77 72 71 71 63 58 51 46 40 43 51 58 65 71 70 75 83 81 76 70 60 56 56 56 54 54 58 60 66 70 69 72
130 118 107 97 85 82 81 85 77 74 71 69 67 61 61 63 60 57 50 46 41 39 44 55 62 67 73 78 76 71 68 59 52 49 51 52 52 54 57 60 63 68 69
131 122 115 109 101 87 76 86 76 84 85 77 77 61 52 59 60 66 60 52 45 42 39 45 50 57 65 71 70 66 63 58 52 49 46 46 49 51 52 56 60 61 65
129 120 115 107 102 95 78 79 83 67 82 88 80 60 41 39 46 56 59 52 46 48 46 45 40 42 53 59 60 57 56 56 54 52 48 43 44 46 50 54 59 57 56
132 126 122 117 108 108 117 113 102 86 61 77 74 48 25 30 38 39 40 50 44 42 46 43 42 40 36 44 50 53 54 54 52 49 47 44 43 45 46 54 58 60 56
142 139 137 135 126 115 106 106 110 104 87 82 104 89 35 7 7 24 28 46 38 36 43 45 47 47 34 25 32 42 42 48 49 46 42 40 40 43 47 51 54 57 54
150 146 148 143 140 135 142 143 140 131 138 52 105 128 131 190 318 347 10 21 23 34 20 28 46 36 35 24 10 28 36 41 44 41 38 35 33 38 42 45 50 55 53
137 138 144 143 144 142 151 164 146 143 138 144 62 80 144 153 146 326 339 348 2 18 1 28 41 31 33 28 18 26 34 33 34 37 35 30 30 33 37 40 43 48 46
144 141 142 141 146 149 158 157 143 142 143 153 161 153 106 84 116 140 237 319 348 337 342 347 21 17 22 28 357 15 24 26 22 25 27 27 30 31 32 40 40 37 38
149 150 146 152 156 154 161 164 156 154 157 153 156 154 152 154 173 153 176 234 283 301 316 328 337 335 334 343 343 20 18 25 18 18 20 21 26 33 38 36 31 30 29
172 193 158 162 164 168 165 154 144 153 157 161 174 177 173 179 163 151 145 183 251 294 321 315 287 278 278 310 321 8 17 25 14 14 21 19 20 28 26 23 22 23 18
194 193 170 168 171 170 167 155 145 159 149 164 171 168 166 185 160 158 156 148 118 322 310 278 297 266 257 241 268 320 347 16 8 5 23 23 23 18 6 1 4 7 5
193 184 176 176 183 181 175 159 158 172 158 169 173 164 151 176 160 157 148 150 149 181 265 264 269 270 255 238 260 268 299 339 351 317 309 25 8 5 7 6 3 358 352
192 176 185 186 189 189 180 166 163 174 156 179 176 161 161 159 136 134 150 155 152 161 216 247 240 258 264 258 256 252 266 307 303 261 242 265 291 313 342 348 354 356 353
191 183 191 192 192 197 188 173 179 171 169 188 187 170 186 168 149 161 155 154 159 148 187 265 272 279 248 259 292 298 290 294 295 275 257 264 277 284 301 318 332 344 345
182 173 175 181 187 183 178 174 187 182 178 195 206 177 192 171 158 168 162 177 183 172 164 219 267 277 251 241 240 268 298 306 290 284 276 272 274 273 287 328 338 333 333
148 169 172 178 183 178 170 176 182 181 190 202 201 189 191 162 180 189 174 180 198 190 165 170 221 244 282 330 356 314 323 324 300 291 293 290 287 292 292 315 323 326 335
136 188 203 194 186 179 176 175 174 169 185 202 204 193 187 182 194 192 180 187 178 159 149 146 172 194 281 328 72 346 335 324 312 315 317 308 300 296 300 310 316 324 333
148 192 240 207 192 181 184 175 184 177 174 185 203 200 199 199 197 189 179 181 166 161 156 154 159 146 226 256 228 220 248 299 309 319 329 310 308 310 295 294 302 311 313
167 166 213 222 216 229 221 187 179 182 180 184 192 210 215 192 202 200 189 173 170 170 179 173 186 198 222 216 206 204 174 99 292 289 272 289 274 282 283 270 293 304 305
171 178 221 207 222 249 238 190 170 172 176 189 194 191 215 227 192 196 209 183 192 191 180 178 187 208 205 202 183 192 202 194 225 244 170 273 295 277 281 285 290 296 301
188 200 212 217 219 235 224 198 157 157 170 194 201 195 191 203 206 163 161 161 207 223 216 201 197 210 209 196 190 193 203 209 270 291 143 226 281 279 297 292 296 306 302
205 213 212 214 221 240 221 191 162 161 162 202 211 203 190 202 214 165 156 170 217 273 262 219 211 205 195 183 156 126 120 124 274 281 217 177 247 285 300 292 301 320 314
209 212 222 223 222 227 220 191 164 157 161 207 234 233 221 218 208 183 176 178 203 234 219 208 237 265 202 186 173 171 170 170 190 251 239 182 212 184 304 291 285 299 306